Weather in Kamishla

Russia / Samara Oblast     54°06′46″N   52°08′34″E
temp.,
°C
wind,
m/s
gust,
m/s
humid.,
%
clouds,
%
prec.,
mm/h
press.,
hPa
HPBL,
m
28 february, sun
sun2801:00−7wnw3597100 0.3 997123
04:00−11nw4897100 0.3 999200
07:00−11nw5895100 0.1 1000234
10:00−11nnw5894100 0.1 1002294
13:00−10nnw5892100 0.1 1004399
16:00−11nnw5892100 0.1 1007483
19:00−14nw3796100 0.1 1009184
22:00−15nnw369694 0.1 1011100
1 march, mon
mon101:00−16nw359679 0.1 1013119
04:00−17nw349777 0.1 101599
07:00−19nw349876 0.1 101769
10:00−18nnw359457 0.1 1019210
13:00−15nw359256 0.0 1020306
16:00−15nw469374 0.0 1021318
19:00−20nw239929 0.0 102120
22:00−22w1210024 0.0 102220
2 march, tue
tue201:00−23wsw221008 0.0 102020
04:00−23ssw339918 0.0 101832
07:00−21s4810096 0.0 1015154
10:00−16s6109798 0.1 1012326
13:00−11ssw71294100 0.4 1009509
16:00−8ssw81394100 1.2 1007646
19:00−7s71394100 0.6 1004609
22:00−5ssw61295100 1.4 1002531
3 march, wed
wed301:00−5ssw51196100 0.6 1000395
04:00−5ssw3797100 1.2 999221
07:00−4sw369899 0.3 999214
10:00−4nw589599 0.6 1000372
13:00−4nw589499 0.1 1001455
16:00−4nw699299 0.1 1002598
19:00−5nw61192100 0.1 1003547
22:00−7nw41096100 0.1 1006266
4 march, thu
thu401:00−7nw6129398 0.1 1007435
04:00−13nw479786 0.1 1009119
07:00−12nw4109595 0.1 1010271
10:00−11nw599497 0.1 1012350
13:00−8wnw5892100 0.0 1014523
16:00−8wnw5892100 0.1 1014545
19:00−11wsw3696100 0.1 1014163
22:00−13ssw489883 0.1 1014136